timestamp,surface_pressure_avg,surface_temp_avg,battery_voltage,lat,long
2021-11-07 00:09:00+00:00,370.9696,9.59,12.65,47.84626,-54.09684
2021-11-07 00:19:00+00:00,372.0179,9.59,12.65,47.84626,-54.09684
2021-11-07 00:29:00+00:00,370.4213,9.6,12.65,47.84626,-54.09684
2021-11-07 00:39:00+00:00,369.1613,9.6,12.65,47.84626,-54.09684
2021-11-07 00:49:00+00:00,373.4579,9.66,12.65,47.84626,-54.09684
2021-11-07 00:59:00+00:00,377.4279,9.77,12.65,47.84626,-54.09684
2021-11-07 01:09:00+00:00,376.343,9.7,12.65,47.84626,-54.09684
2021-11-07 01:19:00+00:00,373.2429,9.69,12.65,47.84626,-54.09684
2021-11-07 01:29:00+00:00,371.0196,9.69,12.65,47.84626,-54.09684
2021-11-07 01:39:00+00:00,367.1863,9.7,12.65,47.84626,-54.09684
2021-11-07 01:49:00+00:00,364.2013,9.7,12.65,47.84626,-54.09684
2021-11-07 01:59:00+00:00,360.3796,9.69,12.65,47.84626,-54.09684
2021-11-07 02:09:00+00:00,357.3613,9.68,12.65,47.84626,-54.09684
2021-11-07 02:19:00+00:00,353.7397,9.64,12.65,47.84626,-54.09684
2021-11-07 02:29:00+00:00,352.7296,9.66,12.65,47.84626,-54.09684
2021-11-07 02:39:00+00:00,348.7863,9.67,12.65,47.84626,-54.09684
2021-11-07 02:49:00+00:00,340.7097,9.6,12.65,47.84626,-54.09684
2021-11-07 02:59:00+00:00,335.9746,9.6,12.65,47.84626,-54.09684
2021-11-07 03:09:00+00:00,334.088,9.62,12.65,47.84626,-54.09684
2021-11-07 03:19:00+00:00,323.413,9.6,12.65,47.84626,-54.09684
2021-11-07 03:29:00+00:00,307.5696,9.6,12.65,47.84626,-54.09684
2021-11-07 03:39:00+00:00,298.5414,9.6,12.65,47.84626,-54.09684
2021-11-07 03:49:00+00:00,287.5297,9.61,12.65,47.84626,-54.09684
2021-11-07 03:59:00+00:00,268.9781,9.7,12.65,47.84626,-54.09684
2021-11-07 04:09:00+00:00,257.5247,9.7,12.65,47.84626,-54.09684
2021-11-07 04:19:00+00:00,252.5497,9.7,12.65,47.84626,-54.09684
2021-11-07 04:29:00+00:00,238.5314,9.74,12.65,47.84626,-54.09684
2021-11-07 04:39:00+00:00,222.3765,9.8,12.65,47.84626,-54.09684
2021-11-07 04:49:00+00:00,217.2647,9.8,12.65,47.84626,-54.09684
2021-11-07 04:59:00+00:00,212.3665,9.8,12.65,47.84626,-54.09684
2021-11-07 05:09:00+00:00,199.5148,9.82,12.65,47.84626,-54.09684
2021-11-07 05:19:00+00:00,189.6914,9.8,12.65,47.84626,-54.09684
2021-11-07 05:29:00+00:00,184.1865,9.8,12.65,47.84626,-54.09684
2021-11-07 05:39:00+00:00,177.6315,9.8,12.65,47.84626,-54.09684
2021-11-07 05:49:00+00:00,172.6732,9.8,12.65,47.84626,-54.09684
2021-11-07 05:59:00+00:00,170.8348,9.8,12.65,47.84626,-54.09684
2021-11-07 06:09:00+00:00,170.4798,9.79,12.65,47.84626,-54.09684
2021-11-07 06:19:00+00:00,172.4365,9.76,12.65,47.84626,-54.09684
2021-11-07 06:29:00+00:00,172.2815,9.73,12.65,47.84626,-54.09684
2021-11-07 06:39:00+00:00,168.4298,9.78,12.65,47.84626,-54.09684
2021-11-07 06:49:00+00:00,168.5948,9.75,12.65,47.84626,-54.09684
2021-11-07 06:59:00+00:00,171.5882,9.75,12.65,47.84626,-54.09684
2021-11-07 07:09:00+00:00,175.1664,9.76,12.65,47.84626,-54.09684
2021-11-07 07:19:00+00:00,178.1148,9.77,12.57,47.84626,-54.09684
2021-11-07 07:29:00+00:00,177.8881,9.78,12.57,47.84626,-54.09684
2021-11-07 07:39:00+00:00,175.9981,9.8,12.57,47.84626,-54.09684
2021-11-07 07:49:00+00:00,178.2065,9.8,12.57,47.84626,-54.09684
2021-11-07 07:59:00+00:00,185.5164,9.8,12.57,47.84626,-54.09684
2021-11-07 08:09:00+00:00,191.4197,9.8,12.57,47.84626,-54.09684
2021-11-07 08:19:00+00:00,198.0265,9.8,12.57,47.84626,-54.09684
2021-11-07 08:29:00+00:00,205.2747,9.8,12.57,47.84626,-54.09684
2021-11-07 08:39:00+00:00,206.7014,9.8,12.57,47.84626,-54.09684
2021-11-07 08:49:00+00:00,208.9831,9.85,12.57,47.84626,-54.09684
2021-11-07 08:59:00+00:00,219.6764,9.86,12.57,47.84626,-54.09684
2021-11-07 09:09:00+00:00,227.2481,9.8,12.57,47.84626,-54.09684
2021-11-07 09:19:00+00:00,226.9664,9.8,12.57,47.84626,-54.09684
2021-11-07 09:29:00+00:00,231.0331,9.78,12.57,47.84626,-54.09684
2021-11-07 09:39:00+00:00,238.0964,9.74,12.57,47.84626,-54.09684
2021-11-07 09:49:00+00:00,244.2864,9.7,12.57,47.84626,-54.09684
2021-11-07 09:59:00+00:00,247.0031,9.7,12.57,47.84626,-54.09684
2021-11-07 10:09:00+00:00,255.9581,9.7,12.57,47.84626,-54.09684
2021-11-07 10:19:00+00:00,266.7347,9.7,12.57,47.84626,-54.09684
2021-11-07 10:29:00+00:00,272.7148,9.76,12.57,47.84626,-54.09684
2021-11-07 10:39:00+00:00,277.0114,9.8,12.57,47.84626,-54.09684
2021-11-07 10:49:00+00:00,289.4564,9.9,12.57,47.84626,-54.09684
2021-11-07 10:59:00+00:00,300.7046,9.9,12.57,47.84626,-54.09684
2021-11-07 11:09:00+00:00,309.6879,9.9,12.57,47.84626,-54.09684
2021-11-07 11:19:00+00:00,321.2363,9.9,13.21,47.84626,-54.09684
2021-11-07 11:29:00+00:00,335.9063,9.9,13.21,47.84626,-54.09684
2021-11-07 11:39:00+00:00,343.5896,9.9,13.21,47.84626,-54.09684
2021-11-07 11:49:00+00:00,349.1529,9.94,13.21,47.84626,-54.09684
2021-11-07 11:59:00+00:00,357.7796,9.99,13.21,47.84626,-54.09684
2021-11-07 12:09:00+00:00,367.3746,9.92,13.21,47.84626,-54.09684
2021-11-07 12:19:00+00:00,374.8013,9.95,14.16,47.84626,-54.09684
2021-11-07 12:29:00+00:00,379.5062,10.0,14.16,47.84626,-54.09684
2021-11-07 12:39:00+00:00,386.0878,10.0,14.16,47.84626,-54.09684
2021-11-07 12:49:00+00:00,388.8913,10.0,14.16,47.84626,-54.09684
2021-11-07 12:59:00+00:00,392.3445,10.0,14.16,47.84626,-54.09684
2021-11-07 13:09:00+00:00,393.8428,10.0,14.16,47.84626,-54.09684
2021-11-07 13:19:00+00:00,395.5546,10.0,14.64,47.84626,-54.09684
2021-11-07 13:29:00+00:00,397.4229,10.0,14.64,47.84626,-54.09684
2021-11-07 13:39:00+00:00,396.2996,10.0,14.64,47.84626,-54.09684
2021-11-07 13:49:00+00:00,393.1447,10.0,14.64,47.84626,-54.09684
2021-11-07 13:59:00+00:00,389.3611,10.0,14.64,47.84626,-54.09684
2021-11-07 14:09:00+00:00,383.9429,10.0,14.64,47.84626,-54.09684
2021-11-07 14:19:00+00:00,380.7879,10.0,14.4,47.84626,-54.09684
2021-11-07 14:29:00+00:00,380.7012,10.0,14.4,47.84626,-54.09684
2021-11-07 14:39:00+00:00,378.2512,10.0,14.4,47.84626,-54.09684
2021-11-07 14:49:00+00:00,371.0029,10.0,14.4,47.84626,-54.09684
2021-11-07 14:59:00+00:00,368.7697,10.0,14.4,47.84626,-54.09684
2021-11-07 15:09:00+00:00,363.1096,10.0,14.4,47.84626,-54.09684
2021-11-07 15:19:00+00:00,353.5146,10.0,14.16,47.84626,-54.09684
2021-11-07 15:29:00+00:00,344.44300000000015,10.0,14.16,47.84626,-54.09684
2021-11-07 15:39:00+00:00,338.8180000000001,10.0,14.16,47.84626,-54.09684
2021-11-07 15:49:00+00:00,327.0096,10.0,14.16,47.84626,-54.09684
2021-11-07 15:59:00+00:00,312.5813,10.0,14.16,47.84626,-54.09684
2021-11-07 16:09:00+00:00,305.918,10.0,14.16,47.84626,-54.09684
2021-11-07 16:19:00+00:00,297.3214,10.0,14.48,47.84626,-54.09684
2021-11-07 16:29:00+00:00,281.2964,10.0,14.48,47.84626,-54.09684
2021-11-07 16:39:00+00:00,266.9196,10.0,14.48,47.84626,-54.09684
2021-11-07 16:49:00+00:00,262.1547,10.0,14.48,47.84626,-54.09684
2021-11-07 16:59:00+00:00,256.0947,10.0,14.48,47.84626,-54.09684
2021-11-07 17:09:00+00:00,241.8698,10.0,14.48,47.84626,-54.09684
2021-11-07 17:19:00+00:00,229.6798,10.0,14.0,47.84626,-54.09684
2021-11-07 17:29:00+00:00,224.6581,10.0,14.0,47.84626,-54.09684
2021-11-07 17:39:00+00:00,215.0297,10.0,14.0,47.84626,-54.09684
2021-11-07 17:49:00+00:00,203.0981,10.0,14.0,47.84626,-54.09684
2021-11-07 17:59:00+00:00,195.1848,10.0,14.0,47.84626,-54.09684
2021-11-07 18:09:00+00:00,190.9281,10.0,14.0,47.84626,-54.09684
2021-11-07 18:19:00+00:00,185.5848,10.0,13.84,47.84626,-54.09684
2021-11-07 18:29:00+00:00,179.9031,10.0,13.84,47.84626,-54.09684
2021-11-07 18:39:00+00:00,179.2732,10.0,13.84,47.84626,-54.09684
2021-11-07 18:49:00+00:00,177.9198,10.0,13.84,47.84626,-54.09684
2021-11-07 18:59:00+00:00,175.6965,10.0,13.84,47.84626,-54.09684
2021-11-07 19:09:00+00:00,178.7148,10.0,13.84,47.84626,-54.09684
2021-11-07 19:19:00+00:00,180.9965,10.0,13.6,47.84626,-54.09684
2021-11-07 19:29:00+00:00,179.7014,10.0,13.6,47.84626,-54.09684
2021-11-07 19:39:00+00:00,182.4248,10.0,13.6,47.84626,-54.09684
2021-11-07 19:49:00+00:00,188.0064,10.0,13.6,47.84626,-54.09684
2021-11-07 19:59:00+00:00,188.7115,10.0,13.6,47.84626,-54.09684
2021-11-07 20:09:00+00:00,188.2231,9.99,13.6,47.84626,-54.09684
2021-11-07 20:19:00+00:00,194.0598,10.0,13.29,47.84626,-54.09684
2021-11-07 20:29:00+00:00,199.0897,10.0,13.29,47.84626,-54.09684
2021-11-07 20:39:00+00:00,200.5114,10.0,13.29,47.84626,-54.09684
2021-11-07 20:49:00+00:00,204.4214,10.0,13.29,47.84626,-54.09684
2021-11-07 20:59:00+00:00,209.7881,10.0,13.29,47.84626,-54.09684
2021-11-07 21:09:00+00:00,213.6681,10.0,13.29,47.84626,-54.09684
2021-11-07 21:19:00+00:00,217.0831,10.0,12.97,47.84626,-54.09684
2021-11-07 21:29:00+00:00,219.0115,10.0,12.97,47.84626,-54.09684
2021-11-07 21:39:00+00:00,222.4297,10.0,12.97,47.84626,-54.09684
2021-11-07 21:49:00+00:00,227.2181,9.98,12.97,47.84626,-54.09684
2021-11-07 21:59:00+00:00,229.3781,9.92,12.97,47.84626,-54.09684
2021-11-07 22:09:00+00:00,231.0348,9.9,12.97,47.84626,-54.09684
2021-11-07 22:19:00+00:00,234.4781,9.9,12.65,47.84626,-54.09684
2021-11-07 22:29:00+00:00,239.0531,9.9,12.65,47.84626,-54.09684
2021-11-07 22:39:00+00:00,242.9781,9.9,12.65,47.84626,-54.09684
2021-11-07 22:49:00+00:00,248.6564,9.9,12.65,47.84626,-54.09684
2021-11-07 22:59:00+00:00,255.0097,9.9,12.65,47.84626,-54.09684
2021-11-07 23:09:00+00:00,259.9397,9.9,12.65,47.84626,-54.09684
2021-11-07 23:19:01+00:00,265.9114,9.9,12.65,47.84626,-54.09684
2021-11-07 23:29:01+00:00,275.5497,9.9,12.65,47.84626,-54.09684
2021-11-07 23:39:01+00:00,285.6348,9.9,12.65,47.84626,-54.09684
2021-11-07 23:49:01+00:00,292.6764,9.9,12.65,47.84626,-54.09684
2021-11-07 23:59:01+00:00,298.7113,9.9,12.65,47.84626,-54.09684
